Location: 3 Angels Observatory
(30.5437°N, 88.5068°W)
Time: 08:56:05
(UTC-05:00)

Oscar 19 - Visible Passes

Search period start: 23 April 2014 00:00
Search period end: 03 May 2014 00:00
Orbit: 775 x 791 km, 98.5° (Epoch: 23 April)

Date Brightness Start Highest point End Pass type
(mag) Time Alt. Az. Time Alt. Az. Time Alt. Az.
23 Apr 12.8 03:11:52 10° N 03:13:18 18° NNW 03:13:18 18° NNW visible
24 Apr 12.9 02:40:00 10° N 02:41:29 20° N 02:41:29 20° N visible
25 Apr 13.3 02:08:41 10° NNE 02:09:41 16° NNE 02:09:41 16° NNE visible
25 Apr 13.0 03:49:33 10° NNW 03:50:16 12° NW 03:50:16 12° NW visible
26 Apr 12.7 03:16:47 10° N 03:18:27 19° NNW 03:18:27 19° NNW visible
27 Apr 12.7 02:44:50 10° N 02:46:38 22° N 02:46:38 22° N visible
28 Apr 13.1 02:13:25 10° NNE 02:14:49 19° NNE 02:14:49 19° NNE visible
28 Apr 12.9 03:54:43 10° NW 03:55:24 12° NW 03:55:24 12° NW visible
29 Apr 13.5 01:42:38 10° NE 01:43:00 12° NE 01:43:00 12° NE visible
29 Apr 12.6 03:21:43 10° NNW 03:23:35 19° NNW 03:23:35 19° NNW visible
30 Apr 12.5 02:49:40 10° N 02:51:46 24° N 02:51:46 24° N visible
01 May 12.9 02:18:10 10° NNE 02:19:56 22° NNE 02:19:56 22° NNE visible
01 May 12.9 04:00:00 10° NW 04:00:31 11° NW 04:00:31 11° NW visible
02 May 13.3 01:47:16 10° NE 01:48:07 14° NE 01:48:07 14° NE visible
02 May 12.5 03:26:39 10° NNW 03:28:42 20° NNW 03:28:42 20° NNW visible
